GW2967 Weather Reports


Display with metric or nautical units.
time (UTC)temp
F
wind
direction
speed
MPH
gust
MPH
rain 1hr
in
rain 24hr
in
rain mn
in
humidity
%
barometer
mb
20260507144533 57 127 1.0 5.0 0.00 0.47 0.06 37 1011.5
20260507143035 56 84 1.0 6.0 0.00 0.47 0.06 38 1011.5
20260507141531 54 0 2.0 8.0 0.00 0.47 0.06 40 1011.7
20260507140032 55 89 1.0 8.0 0.00 0.47 0.06 35 1012.0
20260507134532 54 5 0.0 6.0 0.00 0.54 0.06 40 1012.1
20260507133028 53 119 1.0 7.0 0.00 0.54 0.06 41 1012.0
20260507131534 53 0 1.0 6.0 0.00 0.54 0.06 43 1012.0
20260507130029 52 148 1.0 6.0 0.00 0.54 0.06 45 1012.0
20260507124532 52 101 1.0 6.0 0.00 0.56 0.06 47 1012.0
20260507123028 51 136 1.0 5.0 0.00 0.56 0.06 47 1011.9
20260507121531 50 148 1.0 7.0 0.00 0.56 0.06 49 1011.8
20260507120033 50 121 0.0 7.0 0.00 0.56 0.06 51 1011.9
20260507114532 50 0 0.0 3.0 0.00 0.57 0.06 54 1011.6
20260507113028 48 0 0.0 4.0 0.00 0.57 0.06 58 1011.6
20260507111531 47 0 2.0 7.0 0.00 0.57 0.06 58 1011.5
20260507110028 46 213 0.0 7.0 0.00 0.57 0.06 61 1011.3
20260507104531 45 181 0.0 7.0 0.00 0.57 0.06 63 1011.1
20260507103033 45 127 0.0 3.0 0.00 0.57 0.06 64 1010.8
20260507101531 45 0 0.0 4.0 0.00 0.57 0.06 64 1010.7
20260507100034 46 79 2.0 6.0 0.00 0.57 0.06 64 1010.2
20260507094531 46 129 0.0 6.0 0.00 0.57 0.06 65 1010.4
20260507093030 46 151 0.0 3.0 0.00 0.57 0.06 68 1010.3
20260507091535 46 113 1.0 4.0 0.00 0.57 0.06 66 1009.9
20260507090035 46 0 1.0 7.0 0.00 0.57 0.06 66 1009.7
20260507084531 46 119 0.0 5.0 0.00 0.57 0.06 66 1009.7
20260507083032 46 0 0.0 0.0 0.00 0.57 0.06 66 1009.7
20260507081530 47 0 0.0 3.0 0.00 0.57 0.06 66 1009.9
20260507080031 47 0 0.0 4.0 0.00 0.57 0.06 65 1010.3
20260507074528 47 0 0.0 1.0 0.00 0.57 0.06 67 1010.4
20260507073031 47 0 0.0 1.0 0.02 0.57 0.06 68 1010.5
20260507071528 47 0 0.0 0.0 0.03 0.57 0.06 68 1010.5
20260507070033 47 0 0.0 1.0 0.04 0.57 0.06 69 1010.6
20260507064532 47 0 0.0 1.0 0.06 0.57 0.06 70 1010.7
20260507063030 47 0 0.0 0.0 0.04 0.55 0.04 70 1010.4
20260507061531 48 0 0.0 0.0 0.03 0.54 0.03 70 1010.5
20260507060030 48 0 0.0 1.0 0.02 0.52 0.02 70 1010.3
20260507054537 48 110 0.0 1.0 0.00 0.51 0.00 70 1010.4
20260507053030 48 0 0.0 1.0 0.00 0.51 0.00 69 1010.5
20260507051531 48 0 0.0 0.0 0.00 0.51 0.00 68 1010.4
20260507050029 49 0 0.0 1.0 0.00 0.51 0.00 67 1010.6
20260507044530 49 0 0.0 2.0 0.00 0.51 0.00 66 1010.4
20260507043027 49 133 2.0 7.0 0.00 0.51 0.00 65 1009.3
20260507041532 49 0 0.0 4.0 0.00 0.51 0.00 65 1009.6
20260507040033 49 0 0.0 1.0 0.00 0.51 0.00 65 1010.3
20260507034531 49 0 0.0 1.0 0.00 0.51 0.51 65 1010.4
20260507033030 49 0 0.0 5.0 0.00 0.51 0.51 65 1010.3
20260507031530 49 0 0.0 2.0 0.00 0.51 0.51 65 1009.9
20260507030031 49 0 0.0 4.0 0.00 0.51 0.51 66 1010.0
20260507024532 50 245 0.0 4.0 0.00 0.51 0.51 66 1010.0
20260507023030 50 126 0.0 4.0 0.00 0.51 0.51 67 1010.1
20260507021530 50 93 1.0 6.0 0.00 0.51 0.51 67 1010.2
20260507020036 50 110 1.0 6.0 0.00 0.51 0.51 68 1010.4
20260507014531 50 108 5.0 11.0 0.00 0.51 0.51 67 1010.4
20260507013042 51 131 2.0 7.0 0.00 0.51 0.51 67 1010.4
20260507011532 51 144 1.0 5.0 0.00 0.51 0.51 68 1010.1
20260507010034 51 105 0.0 7.0 0.00 0.51 0.51 68 1009.9
20260507004529 52 0 0.0 5.0 0.00 0.51 0.51 68 1009.6
20260507003038 52 117 0.0 5.0 0.00 0.51 0.51 67 1009.3
20260507001533 53 196 2.0 10.0 0.00 0.51 0.51 66 1009.1
20260507000033 54 235 0.0 4.0 0.00 0.51 0.51 66 1009.0
20260506234536 55 197 0.0 8.0 0.00 0.51 0.51 66 1008.4
20260506233031 59 129 3.0 9.0 0.00 0.51 0.51 66 1008.0
20260506231528 61 0 0.0 0.0 0.00 0.51 0.51 65 1007.3
20260506230033 62 0 0.0 0.0 0.00 0.51 0.51 65 1007.2
20260506224533 62 0 0.0 1.0 0.00 0.51 0.51 65 1007.1
20260506223041 62 0 0.0 1.0 0.00 0.51 0.51 64 1007.1
20260506221531 63 0 0.0 0.0 0.00 0.51 0.51 64 1007.0
20260506220030 63 0 0.0 2.0 0.00 0.51 0.51 64 1006.9
20260506214538 63 0 0.0 1.0 0.00 0.51 0.51 64 1006.8
20260506213029 63 0 0.0 2.0 0.00 0.51 0.51 64 1006.6
20260506211529 62 0 0.0 0.0 0.00 0.51 0.51 64 1006.4
20260506210030 62 131 0.0 1.0 0.00 0.51 0.51 64 1006.4
20260506204529 62 0 0.0 0.0 0.00 0.51 0.51 64 1006.4
20260506203033 61 0 0.0 0.0 0.00 0.51 0.51 64 1006.4
20260506201529 62 0 0.0 1.0 0.00 0.51 0.51 65 1006.2
20260506200027 61 0 0.0 2.0 0.00 0.51 0.51 66 1006.4
20260506193027 60 243 0.0 3.0 0.01 0.51 0.51 67 1006.5
20260506191528 60 0 0.0 2.0 0.02 0.51 0.51 67 1006.7
20260506190028 60 242 0.0 3.0 0.04 0.51 0.51 67 1006.7
20260506184543 60 188 0.0 2.0 0.04 0.50 0.50 67 1006.7
20260506183038 60 239 0.0 5.0 0.06 0.50 0.50 67 1006.9
20260506181537 60 0 0.0 1.0 0.09 0.49 0.49 67 1007.0
20260506180036 60 138 0.0 1.0 0.08 0.47 0.47 67 1007.2
20260506174529 60 248 0.0 2.0 0.10 0.46 0.46 67 1007.2
20260506173039 59 212 0.0 4.0 0.11 0.43 0.43 68 1007.1
20260506171528 59 0 0.0 3.0 0.08 0.40 0.40 67 1007.2
20260506170028 59 210 0.0 1.0 0.08 0.39 0.39 67 1007.4
20260506164535 59 0 0.0 3.0 0.06 0.36 0.36 67 1007.3
20260506163030 59 0 0.0 3.0 0.06 0.32 0.32 66 1007.6
20260506161528 59 0 0.0 1.0 0.12 0.32 0.32 66 1007.6
20260506160032 59 0 0.0 1.0 0.14 0.31 0.31 66 1007.6
20260506154532 59 0 0.0 3.0 0.14 0.29 0.29 66 1007.6
20260506153027 59 217 0.0 2.0 0.13 0.26 0.26 66 1007.7
20260506151528 59 0 0.0 2.0 0.08 0.20 0.20 66 1008.3
20260506150031 59 0 0.0 2.0 0.07 0.17 0.17 65 1007.9